Time,TemperatureF,DewpointF,PressureIn,WindDirection,WindDirectionDegrees,WindSpeedMPH,WindSpeedGustMPH,Humidity,HourlyPrecipIn,Conditions,Clouds,dailyrainin,SolarRadiationWatts/m^2,SoftwareType,DateUTC
2013-09-10 00:03:00,53.0,51.0,-100.00,South,177,2.0,4.0,94,0.00,,,0.00,0.000000,,2013-09-10 06:03:00,
2013-09-10 00:12:00,53.0,51.0,-100.00,South,177,2.0,4.0,94,0.00,,,0.00,0.000000,,2013-09-10 06:12:00,
2013-09-10 00:43:00,51.0,49.0,-100.00,WNW,295,2.0,4.0,93,0.00,,,0.00,0.000000,,2013-09-10 06:43:00,
2013-09-10 00:52:00,51.0,49.0,-100.00,WNW,295,2.0,4.0,93,0.00,,,0.00,0.000000,,2013-09-10 06:52:00,
2013-09-10 01:01:00,51.0,49.0,-100.00,WNW,295,2.0,4.0,93,0.00,,,0.00,0.000000,,2013-09-10 07:01:00,
2013-09-10 01:12:00,51.0,49.0,-100.00,WNW,295,2.0,4.0,93,0.00,,,0.00,0.000000,,2013-09-10 07:12:00,
2013-09-10 01:42:00,51.0,48.0,-100.00,SW,227,2.0,4.0,88,0.00,,,0.00,0.000000,,2013-09-10 07:42:00,
2013-09-10 01:52:00,51.0,48.0,-100.00,SW,227,2.0,4.0,88,0.00,,,0.00,0.000000,,2013-09-10 07:52:00,
2013-09-10 02:02:00,51.0,48.0,-100.00,SW,227,2.0,4.0,88,0.00,,,0.00,0.000000,,2013-09-10 08:02:00,
2013-09-10 02:11:00,51.0,48.0,-100.00,SW,227,2.0,4.0,88,0.00,,,0.00,0.000000,,2013-09-10 08:11:00,
2013-09-10 02:42:00,48.0,47.0,-100.00,SW,218,1.0,3.0,98,0.00,,,0.00,0.000000,,2013-09-10 08:42:00,
2013-09-10 02:52:00,48.0,47.0,-100.00,SW,218,1.0,3.0,98,0.00,,,0.00,0.000000,,2013-09-10 08:52:00,
2013-09-10 03:02:00,48.0,47.0,-100.00,SW,218,1.0,3.0,98,0.00,,,0.00,0.000000,,2013-09-10 09:02:00,
2013-09-10 03:11:00,48.0,47.0,-100.00,SW,218,1.0,3.0,98,0.00,,,0.00,0.000000,,2013-09-10 09:11:00,
2013-09-10 03:43:00,45.0,45.0,-100.00,North,352,1.0,4.0,100,0.00,,,0.00,0.000000,,2013-09-10 09:43:00,
2013-09-10 03:54:00,45.0,45.0,-100.00,North,352,1.0,4.0,100,0.00,,,0.00,0.000000,,2013-09-10 09:54:00,
2013-09-10 04:03:00,45.0,45.0,-100.00,North,352,1.0,4.0,100,0.00,,,0.00,0.000000,,2013-09-10 10:03:00,
2013-09-10 04:13:00,45.0,45.0,-100.00,North,352,1.0,4.0,100,0.00,,,0.00,0.000000,,2013-09-10 10:13:00,
2013-09-10 04:43:00,45.0,45.0,-100.00,SW,216,1.0,4.0,100,0.00,,,0.00,0.000000,,2013-09-10 10:43:00,
2013-09-10 04:53:00,45.0,45.0,-100.00,SW,216,1.0,4.0,100,0.00,,,0.00,0.000000,,2013-09-10 10:53:00,
2013-09-10 05:03:00,45.0,45.0,-100.00,SW,216,1.0,4.0,100,0.00,,,0.00,0.000000,,2013-09-10 11:03:00,
2013-09-10 05:11:00,45.0,45.0,-100.00,SW,216,1.0,4.0,100,0.00,,,0.00,0.000000,,2013-09-10 11:11:00,
2013-09-10 07:52:00,42.0,42.0,-100.00,SE,141,2.0,3.0,100,-99.99,,,0.00,1.000000,,2013-09-10 13:52:00,
2013-09-10 08:02:00,42.0,42.0,-100.00,SE,141,2.0,3.0,100,-99.99,,,0.00,1.000000,,2013-09-10 14:02:00,
2013-09-10 08:11:00,42.0,42.0,-100.00,SE,141,2.0,3.0,100,-99.99,,,0.00,1.000000,,2013-09-10 14:11:00,
2013-09-10 08:42:00,46.0,46.0,-100.00,ENE,62,1.0,2.0,100,0.00,,,0.00,54.000000,,2013-09-10 14:42:00,
2013-09-10 08:52:00,46.0,46.0,-100.00,ENE,62,1.0,2.0,100,0.00,,,0.00,54.000000,,2013-09-10 14:52:00,
2013-09-10 09:02:00,46.0,46.0,-100.00,ENE,62,1.0,2.0,100,0.00,,,0.00,54.000000,,2013-09-10 15:02:00,
2013-09-10 09:11:00,46.0,46.0,-100.00,ENE,62,1.0,2.0,100,0.00,,,0.00,54.000000,,2013-09-10 15:11:00,
2013-09-10 09:43:00,56.0,50.0,-100.00,NNW,340,2.0,3.0,80,0.00,,,-99.99,239.000000,,2013-09-10 15:43:00,
2013-09-10 09:54:00,56.0,50.0,-100.00,NNW,340,2.0,3.0,80,0.00,,,-99.99,239.000000,,2013-09-10 15:54:00,
2013-09-10 10:03:00,56.0,50.0,-100.00,NNW,340,2.0,3.0,80,0.00,,,-99.99,239.000000,,2013-09-10 16:03:00,
2013-09-10 10:12:00,56.0,50.0,-100.00,NNW,340,2.0,3.0,80,0.00,,,-99.99,239.000000,,2013-09-10 16:12:00,
2013-09-10 10:53:00,66.0,52.0,-100.00,NNE,18,3.0,4.0,60,0.00,,,0.00,373.000000,,2013-09-10 16:53:00,
2013-09-10 11:03:00,66.0,52.0,-100.00,NNE,18,3.0,4.0,60,0.00,,,0.00,373.000000,,2013-09-10 17:03:00,
2013-09-10 11:12:00,66.0,52.0,-100.00,NNE,18,3.0,4.0,60,0.00,,,0.00,373.000000,,2013-09-10 17:12:00,
2013-09-10 11:52:00,72.0,48.0,-100.00,ENE,60,3.0,5.0,43,0.00,,,0.00,593.000000,,2013-09-10 17:52:00,
2013-09-10 12:02:00,72.0,48.0,-100.00,ENE,60,3.0,5.0,43,0.00,,,0.00,593.000000,,2013-09-10 18:02:00,
2013-09-10 12:12:00,72.0,48.0,-100.00,ENE,60,3.0,5.0,43,0.00,,,0.00,593.000000,,2013-09-10 18:12:00,
2013-09-10 12:52:00,76.0,49.0,-100.00,SE,126,3.0,6.0,39,0.00,,,0.00,750.000000,,2013-09-10 18:52:00,
2013-09-10 13:02:00,76.0,49.0,-100.00,SE,126,3.0,6.0,39,0.00,,,0.00,750.000000,,2013-09-10 19:02:00,
2013-09-10 13:11:00,76.0,49.0,-100.00,SE,126,3.0,6.0,39,0.00,,,0.00,750.000000,,2013-09-10 19:11:00,
2013-09-10 13:42:00,80.0,47.0,-100.00,NE,45,4.0,6.0,32,0.00,,,0.00,848.000000,,2013-09-10 19:42:00,
2013-09-10 13:52:00,80.0,47.0,-100.00,NE,45,4.0,6.0,32,0.00,,,0.00,848.000000,,2013-09-10 19:52:00,
2013-09-10 14:02:00,80.0,47.0,-100.00,NE,45,4.0,6.0,32,0.00,,,0.00,848.000000,,2013-09-10 20:02:00,
2013-09-10 14:11:00,80.0,47.0,-100.00,NE,45,4.0,6.0,32,0.00,,,0.00,848.000000,,2013-09-10 20:11:00,
2013-09-10 14:42:00,83.0,48.0,-100.00,NNE,27,3.0,7.0,30,0.00,,,0.00,887.000000,,2013-09-10 20:42:00,
2013-09-10 14:52:00,83.0,48.0,-100.00,NNE,27,3.0,7.0,30,0.00,,,0.00,887.000000,,2013-09-10 20:52:00,
2013-09-10 15:02:00,83.0,48.0,-100.00,NNE,27,3.0,7.0,30,0.00,,,0.00,887.000000,,2013-09-10 21:02:00,
2013-09-10 15:11:00,83.0,48.0,-100.00,NNE,27,3.0,7.0,30,0.00,,,0.00,887.000000,,2013-09-10 21:11:00,
2013-09-10 15:44:00,88.0,49.0,-100.00,NE,37,3.0,6.0,26,0.00,,,0.00,863.000000,,2013-09-10 21:44:00,
2013-09-10 15:54:00,88.0,49.0,-100.00,NE,37,3.0,6.0,26,0.00,,,0.00,863.000000,,2013-09-10 21:54:00,
2013-09-10 16:04:00,88.0,49.0,-100.00,NE,37,3.0,6.0,26,0.00,,,0.00,863.000000,,2013-09-10 22:04:00,
2013-09-10 16:13:00,88.0,49.0,-100.00,NE,37,3.0,6.0,26,0.00,,,0.00,863.000000,,2013-09-10 22:13:00,
2013-09-10 16:42:00,89.0,43.0,-100.00,East,81,3.0,5.0,20,0.00,,,0.00,782.000000,,2013-09-10 22:42:00,
2013-09-10 16:54:00,89.0,43.0,-100.00,East,81,3.0,5.0,20,0.00,,,0.00,782.000000,,2013-09-10 22:54:00,
2013-09-10 17:03:00,89.0,43.0,-100.00,East,81,3.0,5.0,20,0.00,,,0.00,782.000000,,2013-09-10 23:03:00,
2013-09-10 17:13:00,89.0,43.0,-100.00,East,81,3.0,5.0,20,0.00,,,0.00,782.000000,,2013-09-10 23:13:00,
2013-09-10 17:42:00,91.0,39.0,-100.00,NNW,340,2.0,5.0,16,0.00,,,0.00,637.000000,,2013-09-10 23:42:00,
2013-09-10 17:53:00,91.0,39.0,-100.00,NNW,340,2.0,5.0,16,0.00,,,0.00,637.000000,,2013-09-10 23:53:00,
2013-09-10 18:02:00,91.0,39.0,-100.00,NNW,340,2.0,5.0,16,0.00,,,0.00,637.000000,,2013-09-11 00:02:00,
2013-09-10 18:11:00,91.0,39.0,-100.00,NNW,340,2.0,5.0,16,0.00,,,0.00,637.000000,,2013-09-11 00:11:00,
2013-09-10 18:42:00,84.0,40.0,-100.00,NNE,18,6.0,9.0,21,0.00,,,0.00,448.000000,,2013-09-11 00:42:00,
2013-09-10 18:52:00,84.0,40.0,-100.00,NNE,18,6.0,9.0,21,0.00,,,0.00,448.000000,,2013-09-11 00:52:00,
2013-09-10 19:01:00,84.0,40.0,-100.00,NNE,18,6.0,9.0,21,0.00,,,0.00,448.000000,,2013-09-11 01:01:00,
2013-09-10 19:11:00,84.0,40.0,-100.00,NNE,18,6.0,9.0,21,0.00,,,0.00,448.000000,,2013-09-11 01:11:00,
2013-09-10 19:42:00,76.0,44.0,-100.00,NNE,19,5.0,9.0,32,0.00,,,0.00,209.000000,,2013-09-11 01:42:00,
2013-09-10 19:53:00,76.0,44.0,-100.00,NNE,19,5.0,9.0,32,0.00,,,0.00,209.000000,,2013-09-11 01:53:00,
2013-09-10 20:02:00,76.0,44.0,-100.00,NNE,19,5.0,9.0,32,0.00,,,0.00,209.000000,,2013-09-11 02:02:00,
2013-09-10 20:11:00,76.0,44.0,-100.00,NNE,19,5.0,9.0,32,0.00,,,0.00,209.000000,,2013-09-11 02:11:00,
2013-09-10 21:12:00,66.0,45.0,-100.00,NNE,22,2.0,4.0,46,0.00,,,0.00,12.000000,,2013-09-11 03:12:00,
2013-09-10 21:14:00,61.0,48.0,-100.00,SE,144,3.0,5.0,63,0.00,,,0.00,0.000000,,2013-09-11 03:14:00,
2013-09-10 21:45:00,61.0,48.0,-100.00,SE,144,3.0,5.0,63,0.00,,,0.00,0.000000,,2013-09-11 03:45:00,
2013-09-10 21:54:00,61.0,48.0,-100.00,SE,144,3.0,5.0,63,0.00,,,0.00,0.000000,,2013-09-11 03:54:00,
2013-09-10 22:04:00,61.0,48.0,-100.00,SE,144,3.0,5.0,63,0.00,,,0.00,0.000000,,2013-09-11 04:04:00,
2013-09-10 22:44:00,58.0,47.0,-100.00,South,179,2.0,4.0,67,0.00,,,0.00,0.000000,,2013-09-11 04:44:00,
2013-09-10 22:54:00,58.0,47.0,-100.00,South,179,2.0,4.0,67,0.00,,,0.00,0.000000,,2013-09-11 04:54:00,
2013-09-10 23:03:00,58.0,47.0,-100.00,South,179,2.0,4.0,67,0.00,,,0.00,0.000000,,2013-09-11 05:03:00,
2013-09-10 23:12:00,58.0,47.0,-100.00,South,179,2.0,4.0,67,0.00,,,0.00,0.000000,,2013-09-11 05:12:00,
2013-09-10 23:43:00,55.0,48.0,-100.00,SSW,197,3.0,5.0,76,0.00,,,0.00,0.000000,,2013-09-11 05:43:00,
2013-09-10 23:53:00,55.0,48.0,-100.00,SSW,197,3.0,5.0,76,0.00,,,0.00,0.000000,,2013-09-11 05:53:00,